,,PA_Meas_PMT16A,,PR_Meas_QMR101_102,,RH_Meas_QMH101,,SR_Meas_QMS101,,TA_Meas_QMH101,,GenWind,,GenWind,
time,status,PA,status,PR,status,RH,status,SR,status,TA,status,DirAvg,status,SpdAvg,
2011-03-18, 00:00:05,VALID,916.937,VALID,0,VALID,96.2761,VALID,0,VALID,18.6694,VALID,6,VALID,0.474219,
2011-03-18, 00:01:05,VALID,916.971,VALID,0,VALID,96.3219,VALID,0,VALID,18.6694,VALID,6,VALID,0.33125,
2011-03-18, 00:02:05,VALID,916.919,VALID,0,VALID,96.3905,VALID,0,VALID,18.7293,VALID,6,VALID,0.526953,
2011-03-18, 00:03:05,VALID,916.92,VALID,0,VALID,96.4438,VALID,0,VALID,18.7683,VALID,6,VALID,0.603516,
2011-03-18, 00:04:05,VALID,916.932,VALID,0,VALID,96.4438,VALID,0,VALID,18.7683,VALID,6,VALID,0.682422,
2011-03-18, 00:05:05,VALID,916.921,VALID,0,VALID,96.4896,VALID,0,VALID,18.785,VALID,6,VALID,0.782031,
2011-03-18, 00:06:05,VALID,916.935,VALID,0,VALID,96.4743,VALID,0,VALID,18.8463,VALID,6,VALID,0.420703,
2011-03-18, 00:07:05,VALID,916.923,VALID,0,VALID,96.5048,VALID,0,VALID,18.8463,VALID,6,VALID,0.272656,
2011-03-18, 00:08:05,VALID,916.937,VALID,0,VALID,96.5124,VALID,0,VALID,18.8658,VALID,6,VALID,0.543359,
2011-03-18, 00:09:05,VALID,916.916,VALID,0,VALID,96.5506,VALID,0,VALID,18.9048,VALID,6,VALID,0.735156,
2011-03-18, 00:10:05,VALID,916.9,VALID,0,VALID,96.5353,VALID,0,VALID,18.9243,VALID,6,VALID,0.673437,
2011-03-18, 00:11:05,VALID,916.897,VALID,0,VALID,96.5277,VALID,0,VALID,18.9438,VALID,6,VALID,0.676562,
2011-03-18, 00:12:05,VALID,916.872,VALID,0,VALID,96.5277,VALID,0,VALID,18.9438,VALID,6,VALID,0.616406,
2011-03-18, 00:13:05,VALID,916.863,VALID,0,VALID,96.5277,VALID,0,VALID,18.9633,VALID,6,VALID,0.784766,
2011-03-18, 00:14:05,VALID,916.838,VALID,0,VALID,96.5201,VALID,0,VALID,19.0023,VALID,6,VALID,0.609766,
2011-03-18, 00:15:05,VALID,916.856,VALID,0,VALID,96.4515,VALID,0,VALID,19.0023,VALID,6,VALID,0.491406,
2011-03-18, 00:16:05,VALID,916.875,VALID,0,VALID,96.36,VALID,0,VALID,19.0023,VALID,6,VALID,0.416406,
2011-03-18, 00:17:05,VALID,916.833,VALID,0,VALID,96.2685,VALID,0,VALID,18.9828,VALID,6,VALID,0.484375,
2011-03-18, 00:18:05,VALID,916.845,VALID,0,VALID,96.1846,VALID,0,VALID,18.9828,VALID,6,VALID,0.757813,
2011-03-18, 00:19:05,VALID,916.849,VALID,0,VALID,96.177,VALID,0,VALID,19.0023,VALID,6,VALID,0.889063,
2011-03-18, 00:20:05,VALID,916.827,VALID,0,VALID,96.1008,VALID,0,VALID,19.0218,VALID,6,VALID,0.822266,
2011-03-18, 00:21:05,VALID,916.821,VALID,0,VALID,96.0779,VALID,0,VALID,19.0398,VALID,6,VALID,0.790625,
2011-03-18, 00:22:05,VALID,916.832,VALID,0,VALID,96.0017,VALID,0,VALID,19.0203,VALID,6,VALID,0.461719,
2011-03-18, 00:23:05,VALID,916.836,VALID,0,VALID,95.8492,VALID,0,VALID,18.9799,VALID,6,VALID,0.225391,
2011-03-18, 00:24:05,VALID,916.839,VALID,0,VALID,95.7196,VALID,0,VALID,19.0008,VALID,6,VALID,0.330078,
2011-03-18, 00:25:05,VALID,916.832,VALID,0,VALID,95.6205,VALID,0,VALID,18.9814,VALID,6,VALID,0.478125,
2011-03-18, 00:26:05,VALID,916.832,VALID,0,VALID,95.5214,VALID,0,VALID,19.0008,VALID,6,VALID,0.574219,
2011-03-18, 00:27:05,VALID,916.815,VALID,0,VALID,95.4604,VALID,0,VALID,18.9799,VALID,6,VALID,0.455078,
2011-03-18, 00:28:05,VALID,916.814,VALID,0,VALID,95.4071,VALID,0,VALID,18.9814,VALID,6,VALID,0.684375,
2011-03-18, 00:29:05,VALID,916.831,VALID,0,VALID,95.4071,VALID,0.107441,VALID,19.0008,VALID,6,VALID,0.408594,
2011-03-18, 00:30:05,VALID,916.82,VALID,0,VALID,95.3918,VALID,0.107441,VALID,18.9799,VALID,6,VALID,0.351563,
2011-03-18, 00:31:05,VALID,916.786,VALID,0,VALID,95.4071,VALID,0,VALID,18.9619,VALID,6,VALID,0.669531,
2011-03-18, 00:32:05,VALID,916.758,VALID,0,VALID,95.4452,VALID,0,VALID,18.9229,VALID,6,VALID,0.834766,
2011-03-18, 00:33:05,VALID,916.756,VALID,0,VALID,95.5367,VALID,0,VALID,18.9034,VALID,6,VALID,0.576953,
2011-03-18, 00:34:05,VALID,916.741,VALID,0,VALID,95.5214,VALID,0,VALID,18.8644,VALID,6,VALID,0.540234,
2011-03-18, 00:35:05,VALID,916.733,VALID,0,VALID,95.59,VALID,0,VALID,18.8254,VALID,6,VALID,0.766406,
2011-03-18, 00:36:05,VALID,916.758,VALID,0,VALID,95.4147,VALID,0.107441,VALID,18.7655,VALID,6,VALID,0.854688,
2011-03-18, 00:37:05,VALID,916.735,VALID,0,VALID,95.3537,VALID,0.107441,VALID,18.7279,VALID,6,VALID,0.635156,
2011-03-18, 00:38:05,VALID,916.728,VALID,0,VALID,95.5748,VALID,0,VALID,18.7279,VALID,6,VALID,0.940234,
2011-03-18, 00:39:05,VALID,916.677,VALID,0,VALID,95.6129,VALID,0,VALID,18.6889,VALID,6,VALID,1.01406,
2011-03-18, 00:40:05,VALID,916.678,VALID,0,VALID,95.4909,VALID,0.107441,VALID,18.6095,VALID,6,VALID,0.645312,
2011-03-18, 00:41:05,VALID,916.707,VALID,0,VALID,95.6205,VALID,0.107441,VALID,18.6109,VALID,6,VALID,0.586328,
2011-03-18, 00:42:05,VALID,916.647,VALID,0,VALID,95.7577,VALID,0,VALID,18.6304,VALID,6,VALID,0.626172,
2011-03-18, 00:43:05,VALID,916.632,VALID,0,VALID,95.8568,VALID,0.107441,VALID,18.629,VALID,6,VALID,0.694531,
2011-03-18, 00:44:05,VALID,916.602,VALID,0,VALID,95.9026,VALID,0,VALID,18.629,VALID,6,VALID,0.6375,
2011-03-18, 00:45:05,VALID,916.605,VALID,0,VALID,95.7425,VALID,0,VALID,18.5914,VALID,6,VALID,0.491016,
2011-03-18, 00:46:05,VALID,916.586,VALID,0,VALID,95.7654,VALID,0.107441,VALID,18.5914,VALID,6,VALID,0.681641,
2011-03-18, 00:47:05,VALID,916.588,VALID,0,VALID,95.773,VALID,0,VALID,18.572,VALID,6,VALID,0.512891,
2011-03-18, 00:48:05,VALID,916.606,VALID,0,VALID,95.7806,VALID,0,VALID,18.5525,VALID,6,VALID,0.511719,
2011-03-18, 00:49:05,VALID,916.584,VALID,0,VALID,95.7196,VALID,0,VALID,18.5525,VALID,6,VALID,0.230469,
2011-03-18, 00:50:05,VALID,916.593,VALID,0,VALID,95.3537,VALID,0,VALID,18.4146,VALID,6,VALID,0.33125,
2011-03-18, 00:51:05,VALID,916.576,VALID,0,VALID,95.3079,VALID,0,VALID,18.3965,VALID,6,VALID,0.39375,
2011-03-18, 00:52:05,VALID,916.577,VALID,0,VALID,95.4223,VALID,0.107441,VALID,18.3965,VALID,6,VALID,0.301172,
2011-03-18, 00:53:05,VALID,916.558,VALID,0,VALID,95.4223,VALID,0,VALID,18.3575,VALID,6,VALID,0.383984,
2011-03-18, 00:54:05,VALID,916.543,VALID,0,VALID,95.4985,VALID,0,VALID,18.338,VALID,6,VALID,0.499219,
2011-03-18, 00:55:05,VALID,916.555,VALID,0,VALID,95.5976,VALID,0,VALID,18.3575,VALID,6,VALID,0.530469,
2011-03-18, 00:56:05,VALID,916.575,VALID,0,VALID,95.651,VALID,0.107441,VALID,18.3575,VALID,6,VALID,0.453125,
2011-03-18, 00:57:05,VALID,916.521,VALID,0,VALID,95.5062,VALID,0,VALID,18.338,VALID,6,VALID,0.264844,
2011-03-18, 00:58:05,VALID,916.466,VALID,0,VALID,95.6205,VALID,0,VALID,18.3366,VALID,6,VALID,0.346094,
2011-03-18, 00:59:05,VALID,916.461,VALID,0,VALID,95.7806,VALID,0,VALID,18.3951,VALID,6,VALID,0.334766,
2011-03-18, 01:00:05,VALID,916.467,VALID,0,VALID,95.895,VALID,0,VALID,18.4355,VALID,6,VALID,0.115625,
2011-03-18, 01:01:05,VALID,916.453,VALID,0,VALID,95.9788,VALID,0,VALID,18.416,VALID,6,VALID,0,
2011-03-18, 01:02:05,VALID,916.42,VALID,0,VALID,95.9864,VALID,0,VALID,18.455,VALID,6,VALID,0,
2011-03-18, 01:03:05,VALID,916.424,VALID,0,VALID,95.9407,VALID,0,VALID,18.4355,VALID,6,VALID,0,
2011-03-18, 01:04:05,VALID,916.396,VALID,0,VALID,95.7349,VALID,0,VALID,18.377,VALID,6,VALID,0,
2011-03-18, 01:05:05,VALID,916.395,VALID,0,VALID,95.7196,VALID,0,VALID,18.3575,VALID,6,VALID,0,
2011-03-18, 01:06:05,VALID,916.356,VALID,0,VALID,95.7044,VALID,0,VALID,18.3575,VALID,6,VALID,0,
2011-03-18, 01:07:05,VALID,916.354,VALID,0,VALID,95.6129,VALID,0.107441,VALID,18.3185,VALID,6,VALID,0,
2011-03-18, 01:08:05,VALID,916.334,VALID,0,VALID,95.3994,VALID,0,VALID,18.2601,VALID,6,VALID,0,
2011-03-18, 01:09:05,VALID,916.3,VALID,0,VALID,95.4223,VALID,0,VALID,18.2211,VALID,6,VALID,0.246094,
2011-03-18, 01:10:05,VALID,916.304,VALID,0,VALID,95.6357,VALID,0,VALID,18.2406,VALID,6,VALID,0.220313,
2011-03-18, 01:11:05,VALID,916.311,VALID,0,VALID,95.7349,VALID,0,VALID,18.2016,VALID,6,VALID,0.342187,
2011-03-18, 01:12:05,VALID,916.276,VALID,0,VALID,95.8416,VALID,0,VALID,18.1821,VALID,6,VALID,0.210938,
2011-03-18, 01:13:05,VALID,916.267,VALID,0,VALID,95.9864,VALID,0,VALID,18.2016,VALID,6,VALID,0,
2011-03-18, 01:14:05,VALID,916.254,VALID,0,VALID,96.0322,VALID,0,VALID,18.1612,VALID,6,VALID,0,
2011-03-18, 01:15:05,VALID,916.198,VALID,0,VALID,96.055,VALID,0,VALID,18.1626,VALID,6,VALID,0,
2011-03-18, 01:16:05,VALID,916.221,VALID,0,VALID,96.0779,VALID,0,VALID,18.1821,VALID,6,VALID,0,
2011-03-18, 01:17:05,VALID,916.198,VALID,0,VALID,96.055,VALID,0,VALID,18.1431,VALID,6,VALID,0,
2011-03-18, 01:18:05,VALID,916.214,VALID,0,VALID,96.0932,VALID,0,VALID,18.1431,VALID,6,VALID,0,
2011-03-18, 01:19:05,VALID,916.201,VALID,0,VALID,96.0855,VALID,0,VALID,18.1626,VALID,6,VALID,0,
2011-03-18, 01:20:05,VALID,916.218,VALID,0,VALID,96.116,VALID,0,VALID,18.1821,VALID,6,VALID,0,
2011-03-18, 01:21:05,VALID,916.208,VALID,0,VALID,96.0855,VALID,0,VALID,18.1626,VALID,6,VALID,0,
2011-03-18, 01:22:05,VALID,916.208,VALID,0,VALID,96.1008,VALID,0,VALID,18.1626,VALID,6,VALID,0,
2011-03-18, 01:23:05,VALID,916.188,VALID,0,VALID,96.055,VALID,0,VALID,18.1431,VALID,6,VALID,0,
2011-03-18, 01:24:05,VALID,916.181,VALID,0,VALID,96.0169,VALID,0,VALID,18.1041,VALID,6,VALID,0,
2011-03-18, 01:25:05,VALID,916.158,VALID,0,VALID,96.0169,VALID,0,VALID,18.1236,VALID,6,VALID,0,
2011-03-18, 01:26:05,VALID,916.137,VALID,0,VALID,96.1694,VALID,0,VALID,18.2016,VALID,6,VALID,0,
2011-03-18, 01:27:05,VALID,916.177,VALID,0,VALID,96.3066,VALID,0.107441,VALID,18.299,VALID,6,VALID,0,
2011-03-18, 01:28:05,VALID,916.149,VALID,0,VALID,96.36,VALID,0,VALID,18.338,VALID,6,VALID,0,
2011-03-18, 01:29:05,VALID,916.139,VALID,0,VALID,96.3371,VALID,0,VALID,18.3185,VALID,6,VALID,0,
2011-03-18, 01:30:05,VALID,916.132,VALID,0,VALID,96.3295,VALID,0,VALID,18.299,VALID,6,VALID,0,
2011-03-18, 01:31:05,VALID,916.145,VALID,0,VALID,96.238,VALID,0,VALID,18.2406,VALID,6,VALID,0,
2011-03-18, 01:32:05,VALID,916.097,VALID,0,VALID,96.1846,VALID,0,VALID,18.2406,VALID,6,VALID,0,
2011-03-18, 01:33:05,VALID,916.081,VALID,0,VALID,96.1389,VALID,0.107441,VALID,18.2002,VALID,6,VALID,0.332031,
2011-03-18, 01:34:05,VALID,916.087,VALID,0,VALID,96.1313,VALID,0,VALID,18.2406,VALID,6,VALID,0.302344,
2011-03-18, 01:35:05,VALID,916.065,VALID,0,VALID,96.2456,VALID,0,VALID,18.299,VALID,6,VALID,0.3375,
2011-03-18, 01:36:05,VALID,916.068,VALID,0,VALID,96.3829,VALID,0.107441,VALID,18.377,VALID,6,VALID,0.317578,
2011-03-18, 01:37:05,VALID,916.035,VALID,0,VALID,96.4286,VALID,0.107441,VALID,18.416,VALID,6,VALID,0.152734,
2011-03-18, 01:38:05,VALID,916.02,VALID,0,VALID,96.3829,VALID,0,VALID,18.416,VALID,6,VALID,0,
2011-03-18, 01:39:05,VALID,915.985,VALID,0,VALID,96.4362,VALID,0,VALID,18.4745,VALID,6,VALID,0,
2011-03-18, 01:40:05,VALID,915.99,VALID,0,VALID,96.3829,VALID,0,VALID,18.4355,VALID,6,VALID,0,
2011-03-18, 01:41:05,VALID,915.947,VALID,0,VALID,96.4819,VALID,0,VALID,18.5135,VALID,6,VALID,0.230078,
2011-03-18, 01:42:05,VALID,915.95,VALID,0,VALID,96.5201,VALID,0,VALID,18.5734,VALID,6,VALID,0.217969,
2011-03-18, 01:43:05,VALID,915.928,VALID,0,VALID,96.5353,VALID,0,VALID,18.6109,VALID,6,VALID,0.021875,
2011-03-18, 01:44:05,VALID,915.951,VALID,0,VALID,96.4972,VALID,0,VALID,18.6109,VALID,6,VALID,0,
2011-03-18, 01:45:05,VALID,915.911,VALID,0,VALID,96.3142,VALID,0,VALID,18.5929,VALID,6,VALID,0,
2011-03-18, 01:46:05,VALID,915.922,VALID,0,VALID,95.9483,VALID,0,VALID,18.416,VALID,6,VALID,0.191797,
2011-03-18, 01:47:05,VALID,915.915,VALID,0,VALID,95.3613,VALID,0,VALID,18.2809,VALID,6,VALID,0.566016,
2011-03-18, 01:48:05,VALID,915.9,VALID,0,VALID,95.3232,VALID,0,VALID,18.2211,VALID,6,VALID,0.473437,
2011-03-18, 01:49:05,VALID,915.913,VALID,0,VALID,95.3003,VALID,0.107441,VALID,18.1821,VALID,6,VALID,0.673828,
2011-03-18, 01:50:05,VALID,915.885,VALID,0,VALID,95.3461,VALID,0,VALID,18.1236,VALID,6,VALID,0.622266,
2011-03-18, 01:51:05,VALID,915.857,VALID,0,VALID,95.5214,VALID,0.107441,VALID,18.1236,VALID,6,VALID,0.346875,
2011-03-18, 01:52:05,VALID,915.834,VALID,0,VALID,95.5824,VALID,0,VALID,18.1236,VALID,6,VALID,0.19375,
2011-03-18, 01:53:05,VALID,915.839,VALID,0,VALID,95.6586,VALID,0,VALID,18.1236,VALID,6,VALID,0.432422,
2011-03-18, 01:54:05,VALID,915.857,VALID,0,VALID,95.7272,VALID,0.107441,VALID,18.1821,VALID,6,VALID,0.482031,
2011-03-18, 01:55:05,VALID,915.836,VALID,0,VALID,95.6434,VALID,0,VALID,18.2016,VALID,6,VALID,0.416406,
2011-03-18, 01:56:05,VALID,915.805,VALID,0,VALID,95.4909,VALID,0,VALID,18.2211,VALID,6,VALID,0.405859,
2011-03-18, 01:57:05,VALID,915.808,VALID,0,VALID,95.3766,VALID,0,VALID,18.2601,VALID,6,VALID,0.304688,
2011-03-18, 01:58:05,VALID,915.795,VALID,0,VALID,95.186,VALID,0,VALID,18.3004,VALID,6,VALID,0.316406,
2011-03-18, 01:59:05,VALID,915.755,VALID,0,VALID,95.0106,VALID,0,VALID,18.3199,VALID,6,VALID,0.192578,
2011-03-18, 02:00:05,VALID,915.746,VALID,0,VALID,94.7972,VALID,0,VALID,18.3394,VALID,6,VALID,0.253125,
2011-03-18, 02:01:05,VALID,915.777,VALID,0,VALID,94.355,VALID,0,VALID,18.299,VALID,6,VALID,0.166797,
2011-03-18, 02:02:05,VALID,915.725,VALID,0,VALID,94.0577,VALID,0,VALID,18.3004,VALID,6,VALID,0.314063,
2011-03-18, 02:03:05,VALID,915.725,VALID,0,VALID,93.8595,VALID,0,VALID,18.2615,VALID,6,VALID,0.186719,
2011-03-18, 02:04:05,VALID,915.736,VALID,0,VALID,94.073,VALID,0,VALID,18.2211,VALID,6,VALID,0.370313,
2011-03-18, 02:05:05,VALID,915.754,VALID,0,VALID,94.2483,VALID,0,VALID,18.1821,VALID,6,VALID,0.260547,
2011-03-18, 02:06:05,VALID,915.749,VALID,0,VALID,94.599,VALID,0.107441,VALID,18.1821,VALID,6,VALID,0.250781,
2011-03-18, 02:07:05,VALID,915.767,VALID,0,VALID,94.8734,VALID,0,VALID,18.2016,VALID,6,VALID,0.0496094,
2011-03-18, 02:08:05,VALID,915.788,VALID,0,VALID,94.8277,VALID,0,VALID,18.2211,VALID,6,VALID,0.245312,
2011-03-18, 02:09:05,VALID,915.793,VALID,0,VALID,94.9268,VALID,0,VALID,18.2406,VALID,6,VALID,0.289063,
2011-03-18, 02:10:05,VALID,915.808,VALID,0,VALID,95.1783,VALID,0,VALID,18.3199,VALID,6,VALID,0,
2011-03-18, 02:11:05,VALID,915.809,VALID,0,VALID,95.2088,VALID,0.107441,VALID,18.338,VALID,6,VALID,0,
2011-03-18, 02:12:05,VALID,915.796,VALID,0,VALID,94.9878,VALID,0,VALID,18.2601,VALID,6,VALID,0,
2011-03-18, 02:13:05,VALID,915.775,VALID,0,VALID,94.7514,VALID,0.107441,VALID,18.2406,VALID,6,VALID,0,
2011-03-18, 02:14:05,VALID,915.77,VALID,0,VALID,94.9115,VALID,0.107441,VALID,18.2796,VALID,6,VALID,0,
2011-03-18, 02:15:05,VALID,915.781,VALID,0,VALID,95.0488,VALID,0,VALID,18.3004,VALID,6,VALID,0,
2011-03-18, 02:16:05,VALID,915.768,VALID,0,VALID,95.1631,VALID,0,VALID,18.3004,VALID,6,VALID,0,
2011-03-18, 02:17:05,VALID,915.788,VALID,0,VALID,95.247,VALID,0,VALID,18.2601,VALID,6,VALID,0,
2011-03-18, 02:18:05,VALID,915.753,VALID,0,VALID,95.3156,VALID,0,VALID,18.2809,VALID,6,VALID,0,
2011-03-18, 02:19:05,VALID,915.751,VALID,0,VALID,95.3079,VALID,0.107441,VALID,18.2601,VALID,6,VALID,0,
2011-03-18, 02:20:05,VALID,915.703,VALID,0,VALID,95.2317,VALID,0,VALID,18.2809,VALID,6,VALID,0.0882813,
2011-03-18, 02:21:05,VALID,915.699,VALID,0,VALID,95.2241,VALID,0,VALID,18.2601,VALID,6,VALID,0.26875,
2011-03-18, 02:22:05,VALID,915.655,VALID,0,VALID,95.2546,VALID,0,VALID,18.2406,VALID,6,VALID,0,
2011-03-18, 02:23:05,VALID,915.681,VALID,0,VALID,95.2927,VALID,0,VALID,18.2796,VALID,6,VALID,0,
2011-03-18, 02:24:05,VALID,915.666,VALID,0,VALID,95.1326,VALID,0,VALID,18.2615,VALID,6,VALID,0,
2011-03-18, 02:25:05,VALID,915.683,VALID,0,VALID,95.0106,VALID,0,VALID,18.2615,VALID,6,VALID,0.169922,
2011-03-18, 02:26:05,VALID,915.649,VALID,0,VALID,94.942,VALID,0,VALID,18.2615,VALID,6,VALID,0.0921875,
2011-03-18, 02:27:05,VALID,915.68,VALID,0,VALID,94.8429,VALID,0,VALID,18.2615,VALID,6,VALID,0,
2011-03-18, 02:28:05,VALID,915.72,VALID,0,VALID,94.7514,VALID,0,VALID,18.2615,VALID,6,VALID,0,
2011-03-18, 02:29:05,VALID,915.734,VALID,0,VALID,94.7057,VALID,0,VALID,18.2406,VALID,6,VALID,0.397266,
2011-03-18, 02:30:05,VALID,915.737,VALID,0,VALID,94.7286,VALID,0.107441,VALID,18.2601,VALID,6,VALID,0.664063,
2011-03-18, 02:31:05,VALID,915.74,VALID,0,VALID,94.6752,VALID,0,VALID,18.2796,VALID,6,VALID,0.483594,
2011-03-18, 02:32:05,VALID,915.74,VALID,0,VALID,94.6066,VALID,0.107441,VALID,18.2406,VALID,6,VALID,0.411719,
2011-03-18, 02:33:05,VALID,915.745,VALID,0,VALID,94.4541,VALID,0,VALID,18.2225,VALID,6,VALID,0.266016,
2011-03-18, 02:34:05,VALID,915.708,VALID,0,VALID,94.3169,VALID,0,VALID,18.1236,VALID,6,VALID,0.355859,
2011-03-18, 02:35:05,VALID,915.714,VALID,0,VALID,94.4922,VALID,0,VALID,18.1236,VALID,6,VALID,0.454688,
2011-03-18, 02:36:04,VALID,915.685,VALID,0,VALID,94.6752,VALID,0,VALID,18.1236,VALID,6,VALID,0.405859,
2011-03-18, 02:37:04,VALID,915.72,VALID,0,VALID,94.7438,VALID,0.107441,VALID,18.1236,VALID,6,VALID,0.394922,
2011-03-18, 02:38:04,VALID,915.712,VALID,0,VALID,94.9649,VALID,0,VALID,18.1236,VALID,6,VALID,0.71875,
2011-03-18, 02:39:04,VALID,915.711,VALID,0,VALID,95.2241,VALID,0,VALID,18.1431,VALID,6,VALID,0.932031,
2011-03-18, 02:40:04,VALID,915.693,VALID,0,VALID,95.3842,VALID,0,VALID,18.1236,VALID,6,VALID,0.820313,
2011-03-18, 02:41:04,VALID,915.711,VALID,0,VALID,95.468,VALID,0.107441,VALID,18.125,VALID,6,VALID,0.471484,
2011-03-18, 02:42:04,VALID,915.702,VALID,0,VALID,95.6053,VALID,0,VALID,18.1236,VALID,6,VALID,0.476563,
2011-03-18, 02:43:04,VALID,915.685,VALID,0,VALID,95.7196,VALID,0.107441,VALID,18.1626,VALID,6,VALID,0.416797,
2011-03-18, 02:44:04,VALID,915.682,VALID,0,VALID,95.8416,VALID,0.107441,VALID,18.1626,VALID,6,VALID,0.664453,
2011-03-18, 02:45:04,VALID,915.705,VALID,0,VALID,95.895,VALID,0,VALID,18.1835,VALID,6,VALID,0.291016,
2011-03-18, 02:46:04,VALID,915.686,VALID,0,VALID,95.9178,VALID,0,VALID,18.1821,VALID,6,VALID,0.419141,
2011-03-18, 02:47:04,VALID,915.68,VALID,0,VALID,95.9102,VALID,0,VALID,18.1821,VALID,6,VALID,0.427734,
2011-03-18, 02:48:04,VALID,915.686,VALID,0,VALID,95.9026,VALID,0,VALID,18.1821,VALID,6,VALID,0.0722656,
2011-03-18, 02:49:04,VALID,915.658,VALID,0,VALID,95.9026,VALID,0,VALID,18.2016,VALID,6,VALID,0.344922,
2011-03-18, 02:50:04,VALID,915.613,VALID,0,VALID,95.8492,VALID,0,VALID,18.1626,VALID,6,VALID,0.432422,
2011-03-18, 02:51:04,VALID,915.635,VALID,0,VALID,95.7806,VALID,0,VALID,18.1431,VALID,6,VALID,0.365625,
2011-03-18, 02:52:04,VALID,915.622,VALID,0,VALID,95.5976,VALID,0,VALID,18.0651,VALID,6,VALID,0.414453,
2011-03-18, 02:53:04,VALID,915.601,VALID,0,VALID,95.6053,VALID,0,VALID,18.0457,VALID,6,VALID,0.533594,
2011-03-18, 02:54:04,VALID,915.592,VALID,0,VALID,95.7577,VALID,0,VALID,18.0846,VALID,6,VALID,0.475391,
2011-03-18, 02:55:04,VALID,915.609,VALID,0,VALID,95.8873,VALID,0,VALID,18.1236,VALID,6,VALID,0.435156,
2011-03-18, 02:56:04,VALID,915.589,VALID,0,VALID,95.9331,VALID,0,VALID,18.1626,VALID,6,VALID,0.438672,
2011-03-18, 02:57:04,VALID,915.58,VALID,0,VALID,95.9407,VALID,0,VALID,18.1821,VALID,6,VALID,0.360938,
2011-03-18, 02:58:04,VALID,915.597,VALID,0,VALID,95.895,VALID,0.107441,VALID,18.2406,VALID,6,VALID,0.440625,
2011-03-18, 02:59:04,VALID,915.556,VALID,0,VALID,95.7654,VALID,0.107441,VALID,18.2796,VALID,6,VALID,0.545703,
2011-03-18, 03:00:04,VALID,915.574,VALID,0,VALID,95.5748,VALID,0,VALID,18.299,VALID,6,VALID,0.854688,
2011-03-18, 03:01:04,VALID,915.549,VALID,0,VALID,95.3308,VALID,0,VALID,18.299,VALID,6,VALID,0.990234,
2011-03-18, 03:02:04,VALID,915.539,VALID,0,VALID,95.1479,VALID,0,VALID,18.299,VALID,6,VALID,0.910937,
2011-03-18, 03:03:04,VALID,915.476,VALID,0,VALID,95.0869,VALID,0,VALID,18.2796,VALID,6,VALID,0.625781,
2011-03-18, 03:04:04,VALID,915.478,VALID,0,VALID,95.1097,VALID,0,VALID,18.2796,VALID,6,VALID,0.609375,
2011-03-18, 03:05:04,VALID,915.494,VALID,0,VALID,95.1326,VALID,0,VALID,18.2796,VALID,6,VALID,0.0328125,
2011-03-18, 03:06:04,VALID,915.464,VALID,0,VALID,95.125,VALID,0,VALID,18.2796,VALID,6,VALID,0,
2011-03-18, 03:07:04,VALID,915.444,VALID,0,VALID,95.1402,VALID,0,VALID,18.299,VALID,6,VALID,0,
2011-03-18, 03:08:04,VALID,915.419,VALID,0,VALID,94.9496,VALID,0,VALID,18.2796,VALID,6,VALID,0,
2011-03-18, 03:09:04,VALID,915.371,VALID,0,VALID,94.5837,VALID,0,VALID,18.2211,VALID,6,VALID,0,
2011-03-18, 03:10:04,VALID,915.394,VALID,0,VALID,94.5761,VALID,0,VALID,18.2016,VALID,6,VALID,0,
2011-03-18, 03:11:04,VALID,915.394,VALID,0,VALID,94.9039,VALID,0,VALID,18.2016,VALID,6,VALID,0,
2011-03-18, 03:12:04,VALID,915.383,VALID,0,VALID,95.0792,VALID,0.107441,VALID,18.2002,VALID,6,VALID,0,
2011-03-18, 03:13:04,VALID,915.343,VALID,0,VALID,95.1707,VALID,0,VALID,18.2016,VALID,6,VALID,0,
2011-03-18, 03:14:04,VALID,915.35,VALID,0,VALID,95.1555,VALID,0,VALID,18.242,VALID,6,VALID,0,
2011-03-18, 03:15:04,VALID,915.358,VALID,0,VALID,95.1707,VALID,0,VALID,18.2615,VALID,6,VALID,0.0574219,
2011-03-18, 03:16:04,VALID,915.324,VALID,0,VALID,95.1097,VALID,0,VALID,18.2601,VALID,6,VALID,0.385938,
2011-03-18, 03:17:04,VALID,915.329,VALID,0,VALID,95.0869,VALID,0,VALID,18.2796,VALID,6,VALID,0.588281,
2011-03-18, 03:18:04,VALID,915.344,VALID,0,VALID,95.1021,VALID,0,VALID,18.3185,VALID,6,VALID,0.883203,
2011-03-18, 03:19:04,VALID,915.281,VALID,0,VALID,95.2241,VALID,0.107441,VALID,18.338,VALID,6,VALID,1.02695,
2011-03-18, 03:20:04,VALID,915.281,VALID,0,VALID,95.2165,VALID,0.107441,VALID,18.299,VALID,6,VALID,1.07227,
2011-03-18, 03:21:04,VALID,915.257,VALID,0,VALID,95.2851,VALID,0.107441,VALID,18.2796,VALID,6,VALID,0.622266,
2011-03-18, 03:22:04,VALID,915.271,VALID,0,VALID,95.3461,VALID,0.107441,VALID,18.2197,VALID,6,VALID,0.730859,
2011-03-18, 03:23:04,VALID,915.252,VALID,0,VALID,95.468,VALID,0,VALID,18.2211,VALID,6,VALID,0.766016,
2011-03-18, 03:24:04,VALID,915.242,VALID,0,VALID,95.5671,VALID,0,VALID,18.2225,VALID,6,VALID,0.168359,
2011-03-18, 03:25:04,VALID,915.245,VALID,0,VALID,95.6739,VALID,0,VALID,18.2016,VALID,6,VALID,0.879297,
2011-03-18, 03:26:04,VALID,915.207,VALID,0,VALID,95.834,VALID,0,VALID,18.2016,VALID,6,VALID,0.827734,
2011-03-18, 03:27:04,VALID,915.207,VALID,0,VALID,95.9559,VALID,0,VALID,18.2211,VALID,6,VALID,0.918359,
2011-03-18, 03:28:04,VALID,915.178,VALID,0,VALID,96.0474,VALID,0,VALID,18.2211,VALID,6,VALID,0.608203,
2011-03-18, 03:29:04,VALID,915.154,VALID,0,VALID,96.1084,VALID,0,VALID,18.2406,VALID,6,VALID,0.71875,
2011-03-18, 03:30:04,VALID,915.153,VALID,0,VALID,96.1923,VALID,0.107441,VALID,18.2406,VALID,6,VALID,0.832031,
2011-03-18, 03:31:04,VALID,915.107,VALID,0,VALID,96.2533,VALID,0,VALID,18.2601,VALID,6,VALID,0.574609,
2011-03-18, 03:32:04,VALID,915.131,VALID,0,VALID,96.2761,VALID,0.107441,VALID,18.2601,VALID,6,VALID,1.05586,
2011-03-18, 03:33:04,VALID,915.093,VALID,0,VALID,96.3371,VALID,0,VALID,18.2796,VALID,6,VALID,0.811328,
2011-03-18, 03:34:04,VALID,915.085,VALID,0,VALID,96.3676,VALID,0,VALID,18.299,VALID,6,VALID,0.821875,
2011-03-18, 03:35:04,VALID,915.063,VALID,0,VALID,96.3905,VALID,0,VALID,18.299,VALID,6,VALID,1.00703,
2011-03-18, 03:36:04,VALID,915.056,VALID,0,VALID,96.4133,VALID,0,VALID,18.3185,VALID,6,VALID,0.989062,
2011-03-18, 03:37:04,VALID,915.063,VALID,0,VALID,96.4286,VALID,0,VALID,18.3185,VALID,6,VALID,0.720703,
2011-03-18, 03:38:04,VALID,914.997,VALID,0,VALID,96.4515,VALID,0,VALID,18.3185,VALID,6,VALID,0.643359,
2011-03-18, 03:39:04,VALID,914.996,VALID,0,VALID,96.4362,VALID,0,VALID,18.3185,VALID,6,VALID,0.898047,
2011-03-18, 03:40:04,VALID,914.978,VALID,0,VALID,96.4591,VALID,0,VALID,18.3394,VALID,6,VALID,0.962109,
2011-03-18, 03:41:04,VALID,914.941,VALID,0,VALID,96.4667,VALID,0,VALID,18.338,VALID,6,VALID,1.00078,
2011-03-18, 03:42:04,VALID,914.962,VALID,0,VALID,96.4667,VALID,0,VALID,18.338,VALID,6,VALID,0.880859,
2011-03-18, 03:43:04,VALID,914.922,VALID,0,VALID,96.4515,VALID,0,VALID,18.338,VALID,6,VALID,0.907031,
2011-03-18, 03:44:04,VALID,914.91,VALID,0,VALID,96.4743,VALID,0,VALID,18.338,VALID,6,VALID,0.654297,
2011-03-18, 03:45:04,VALID,914.91,VALID,0,VALID,96.421,VALID,0,VALID,18.3185,VALID,6,VALID,0.723437,
2011-03-18, 03:46:04,VALID,914.891,VALID,0,VALID,96.4057,VALID,0,VALID,18.3185,VALID,6,VALID,0.835156,
2011-03-18, 03:47:04,VALID,914.893,VALID,0,VALID,96.421,VALID,0,VALID,18.3199,VALID,6,VALID,1.05781,
2011-03-18, 03:48:04,VALID,914.844,VALID,0,VALID,96.421,VALID,0,VALID,18.3185,VALID,6,VALID,1.25781,
2011-03-18, 03:49:04,VALID,914.832,VALID,0,VALID,96.3676,VALID,0,VALID,18.338,VALID,140,VALID,1.15273,
2011-03-18, 03:50:04,VALID,914.835,VALID,0,VALID,96.3295,VALID,0,VALID,18.3185,VALID,140,VALID,1.09102,